カタログに戻る

DELTA 1 R/B(1)

運用中UNKNOWN
NORAD 15202·ROCKET BODY·🇺🇸 United States

打ち上げ Aug 16, 1984 から Cape Canaveral Space Force Station

Loading…

次のパス (今後24時間)

TLE

最新Source: Space-Track

元期: Sep 14, 2026, 11:59 UTC

1 15202U 84088D   26257.49931500  .00000288  00000-0  14179-3 0  9994
2 15202  28.9190 338.3970 1982941 310.3925  33.9373 10.82359407659569

AllMySatでDELTA 1 R/B(1)をリアルタイム追跡

Download on the App Store